Regional Weather Roundup
Issued by NWS Mobile, AL

Home | Current Version | Previous Version | Text Only | Print | Product List | Glossary On
Versions: 1 2 3 4 5 6 7 8 9 10 11 12 13 14 15 16 17 18 19 20 21 22 23 24 25 26 27 28 29 30 31 32 33 34 35 36 37 38 39 40 41 42 43 44 45 46 47 48 49 50
677
ASUS44 KMOB 270812
RWRMOB
REGIONAL WEATHER ROUNDUP
NATIONAL WEATHER SERVICE MOBILE AL
300 AM CDT WED JUL 27 2016

NOTE: "FAIR" INDICATES FEW OR NO CLOUDS BELOW 12,000 FEET WITH NO
      SIGNIFICANT WEATHER AND/OR OBSTRUCTIONS TO VISIBILITY.

  * THESE STATIONS ARE PART OF THE UNIVERSITY OF SOUTH ALABAMA
    MESONET AND ARE NOT UNDER NWS OR FAA QUALITY CONTROL.

ALZ061>064-270900-
COASTAL ALABAMA

CITY           SKY/WX    TMP DP  RH WIND       PRES   REMARKS
MOBILE REG APT PTCLDY    75  73  93 S3        30.00F
BROOKLEY FIELD CLEAR     77  74  90 S3        30.00F
USA CAMPUS*    NOT AVBL
DOG RIVER*     NOT AVBL


CITY           SKY/WX    TMP DP  RH WIND       PRES   REMARKS
MOUNT VERNON*  NOT AVBL
SARALAND*      NOT AVBL
BAY MINETTE*   NOT AVBL
LOXLEY*        NOT AVBL
ROBERTSDALE*   NOT AVBL
FAIRHOPE*      NOT AVBL
ELBERTA*       NOT AVBL
FOLEY*         NOT AVBL
GRAND BAY*     NOT AVBL
DAUPHIN ISLND* NOT AVBL
BON SCOUR NWR* NOT AVBL
GULF SHORES    MOCLDY    81  75  83 S6        29.99F

$$

ALZ051>060-270900-
INTERIOR SOUTHWEST AND SOUTH CENTRAL ALABAMA

CITY           SKY/WX    TMP DP  RH WIND       PRES   REMARKS
GREENVILLE     MOCLDY    75  72  90 S5        30.01F
EVERGREEN      CLOUDY    75  73  93 S5        30.01F
CASTLEBERRY*   NOT AVBL
ATMORE*        NOT AVBL
DIXIE*         NOT AVBL
ANDALUSIA/OPP  PTCLDY    78  73  84 CALM      30.02F
ANDALUSIA*     NOT AVBL
FLORALA APT    CLEAR     74  72  93 CALM      30.04F
FLORALA*       NOT AVBL

$$

FLZ001>006-270900-
WESTERN FLORIDA PANHANDLE

CITY           SKY/WX    TMP DP  RH WIND       PRES   REMARKS
PENSACOLA      CLEAR     80  72  76 SW5       30.00F
NAS PENSACOLA  CLEAR     82  73  74 SW9       29.99F
MILTON         CLEAR     76  74  93 SW3       30.00F
WHTNG S FIELD  CLEAR     80  76  87 CALM      30.00F


CITY           SKY/WX    TMP DP  RH WIND       PRES   REMARKS
WALNUT HILL*   NOT AVBL
JAY*           NOT AVBL
DUKE FIELD     CLEAR     74  72  93 S2        30.00F
CRESTVIEW      CLEAR     74  72  93 CALM      30.02F
VALPARAISO     PTCLDY    81  75  82 SW5       30.00F
DESTIN         CLEAR     84  77  79 MISG      30.01F

$$

MSZ076-079-270900-
INTERIOR SOUTHEAST MISSISSIPPI

CITY           SKY/WX    TMP DP  RH WIND       PRES   REMARKS
LEAKESVILLE*   NOT AVBL
AGRICOLA*      NOT AVBL

$$

MARINE OBSERVATIONS

STATION/POSITION TIME  TEMP    WIND        PRES    WAVE
                       AIR SEA DIR/SP/G            HT/PER
                 (UTC) (F)     (DEG/KT/KT) (MB)    (FT/S)
PASCAGOULA       0700   83     220/  6/ 10 1015.2F
PETIT BOIS ISLND 0700   83     200/ 14/ 17 1016.2F
GRAND BAY        0600   82     240/  9     1017.0
KATRINA CUT      0700   83     220/ 15     1016.3F
CEDAR POINT      0700   83     220/ 16     1015.9
E DAUPHIN ISLAND 0700   83     210/  9/ 13 1015.7F
MIDDLE BAY LIGHT 0700   84     200/ 16     1015.9F
USCG MOBILE BAY  0700   78 87  230/  2/  3 1016.4F
STATE DOCKS      0700   80 88              1015.7F
MEAHER PARK      0700   83     210/ 12     1015.6F
WEEKS BAY        0600   82                   N/A
FORT MORGAN      0700   83     220/ 15/ 18 1015.5F
12 S ORANGE BCH  0750   83 87  210/ 12/ 14 1015.7F   4/ 7
PENSACOLA BAY    0700   84 87  220/  9/ 12 1016.5F
64 S DAUPHIN ISL 0700   83 85  180/ 10/ 12 1015.8F
67 S FORT MORGAN 0730   82     200/ 12     1015.9F

$$

SELECTED LOCATIONS ACROSS THE REGION

CITY           SKY/WX    TMP DP  RH WIND       PRES   REMARKS
NEW ORLEANS    MOCLDY    80  74  81 S7        29.96F
GULFPORT       PTCLDY    81  71  71 S5        29.96F
PASCAGOULA AP  CLOUDY    75  75 100 CALM      29.98F
PASCAGOULA*    NOT AVBL
HATTIESBURG    MOCLDY    76  74  93 S3        29.97F
LAUREL         CLOUDY    75  72  88 S6        29.98S
MERIDIAN       MOCLDY    78  74  87 S7        29.95F
JACKSON        CLOUDY    76  73  91 S9        29.93F
MONTGOMERY     CLEAR     76  73  91 S5        30.00F
TROY           CLEAR     74  73  97 S3        30.03F
KINSTON*       NOT AVBL
GENEVA*        NOT AVBL
ASHFORD*       NOT AVBL
DOTHAN         CLEAR     74  73  97 S5        30.06F
PANAMA CITY    CLOUDY    78  75  90 CALM      30.02F

$$





USA.gov is the U.S. government's official web portal to all federal, state and local government web resources and services.